Skip Page Navigation
NASA JPL Caltech
NASA Logo - Jet Propulsion Laboratory + View the NASA Portal
+ Center for Near-Earth Object Studies
JPL Home Earth Solar System Stars & Galaxies Technology
JPL Solar System Dynamics
BODIES ORBITS EPHEMERIDES TOOLS PHYSICAL DATA DISCOVERY FAQ SITE MAP
IMPORTANT: The SSD Announcement email list is now available. Major changes are coming in the near future, including possible hostname and/or URL changes. To be notified of such changes, subscribe to this email list.

Please visit this page for more details.


JPL Small-Body Database Browser
Search: [ help ]  
34572 (2000 SY310)
Classification: Main-belt Asteroid          SPK-ID: 2034572
Ephemeris | Orbit Diagram | Orbital Elements | Mission Design | Physical Parameters | Discovery Circumstances | Close-Approach Data ]

[ show orbit diagram ]
Orbital Elements at Epoch 2458600.5 (2019-Apr-27.0) TDB
Reference: JPL 28 (heliocentric ecliptic J2000)
 Element Value Uncertainty (1-sigma)   Units 
e .07859143044862309 3.7332e-08  
a 2.542260657194965 1.3686e-08 au
q 2.342460755572756 9.8363e-08 au
i 14.19352710150684 4.9725e-06 deg
node 292.5435620249658 2.2587e-05 deg
peri 126.0046388348218 5.3365e-05 deg
M 178.1546219495964 4.8475e-05 deg
tp 2457867.805156830536
(2017-Apr-24.30515683)
0.00019738 TDB
period 1480.568624347186
4.05
1.1955e-05
3.273e-08
d
yr
n .2431498237096113 1.9634e-09 deg/d
Q 2.742060558817174 1.4761e-08 au
  Orbit Determination Parameters
   # obs. used (total)      1473  
   data-arc span      13703 days (37.52 yr)  
   first obs. used      1982-02-18  
   last obs. used      2019-08-26  
   planetary ephem.      DE431  
   SB-pert. ephem.      SB431-N16  
   condition code      0  
   norm. resid. RMS      .42654  
   source      ORB  
   producer      Otto Matic  
   solution date      2019-Sep-24 01:54:40  

Additional Information
 Earth MOID = 1.38341 au 
 Jupiter MOID = 2.49824 au 
 T_jup = 3.398 
[ show covariance matrix ]

Ephemeris | Orbit Diagram | Orbital Elements | Mission Design | Physical Parameters | Discovery Circumstances | Close-Approach Data ]

Physical Parameter Table
Parameter Symbol Value Units Sigma Reference Notes
absolute magnitude H 13.0   n/a MPO436006  
diameter diameter 7.286 km 0.091 urn:nasa:pds:neowise_diameters_albedos::2.0[mainbelt] (http://adsabs.harvard.edu/abs/2011ApJ...741...68M)  
rotation period rot_per 6.64 h n/a LCDB (Rev. 2019-January); Warner et al., 2009 Published Reference List:
[Kim, M.-J.; Choi, Y.-J.; Moon, H.-K.; Byun, Y.-I.; et al. (2014) Astron. J. 147, A56.]
geometric albedo albedo 0.252   0.069 urn:nasa:pds:neowise_diameters_albedos::2.0[mainbelt] (http://adsabs.harvard.edu/abs/2011ApJ...741...68M)  

34572 (2000 SY310)          Discovered 2000-Sep-26 by LINEAR at Socorro
Reference: 20020128/Numbers.arcLast Updated: 2004-04-19

[ show close-approach data ]
Alternate Designations
 2000 SY310 = 1982 DT2 
Ephemeris | Orbit Diagram | Orbital Elements | Mission Design | Physical Parameters | Discovery Circumstances | Close-Approach Data ]
ABOUT SSD CREDITS/AWARDS PRIVACY/COPYRIGHT GLOSSARY LINKS
FirstGov 2019-Oct-21 23:47 UT
(server date/time)  
NASA Home Page
Site Manager:   Ryan S. Park
Webmaster  Alan B. Chamberlin